This is the latest recevied weather packets stored in our database for station/object SV6AYW-10. If no packets are shown the sender has not sent any weather packets the latest 10 day(s).
| Time | Temp. | Humidity | Pressure | Rain* | Wind** | Luminosity | Snow |
|---|---|---|---|---|---|---|---|
| 1777082962 | 20° C | 49% | 1013.9 hPa | - | - | - | - |
| 1777082060 | 20.56° C | 49% | 1014.2 hPa | - | - | - | - |
| 1777081159 | 20.56° C | 50% | 1014.2 hPa | - | - | - | - |
| 1777080259 | 20.56° C | 49% | 1014.4 hPa | - | - | - | - |
| 1777079359 | 20.56° C | 49% | 1014.3 hPa | - | - | - | - |
| 1777078459 | 20.56° C | 49% | 1014.4 hPa | - | - | - | - |
| 1777077559 | 20.56° C | 49% | 1014.4 hPa | - | - | - | - |
| 1777076659 | 21.11° C | 49% | 1014.4 hPa | - | - | - | - |
| 1777075759 | 21.11° C | 48% | 1014.5 hPa | - | - | - | - |
| 1777074858 | 21.11° C | 48% | 1014.5 hPa | - | - | - | - |
| 1777073948 | 21.11° C | 48% | 1014.6 hPa | - | - | - | - |
| 1777073048 | 21.67° C | 48% | 1014.6 hPa | - | - | - | - |
| 1777072148 | 21.67° C | 48% | 1014.5 hPa | - | - | - | - |
| 1777071248 | 21.67° C | 48% | 1014.6 hPa | - | - | - | - |
| 1777070348 | 22.22° C | 48% | 1014.8 hPa | - | - | - | - |
| 1777069444 | 22.22° C | 48% | 1014.7 hPa | - | - | - | - |
| 1777068542 | 22.22° C | 47% | 1014.8 hPa | - | - | - | - |
| 1777067642 | 22.22° C | 47% | 1014.8 hPa | - | - | - | - |
| 1777066742 | 22.78° C | 46% | 1014.6 hPa | - | - | - | - |
| 1777065842 | 22.78° C | 46% | 1014.6 hPa | - | - | - | - |
| 1777064940 | 23.33° C | 45% | 1014.6 hPa | - | - | - | - |
| 1777064085 | 23.33° C | 46% | 1014.4 hPa | - | - | - | - |
| 1777063184 | 24.44° C | 45% | 1014.2 hPa | - | - | - | - |
| 1777062278 | 24.44° C | 44% | 1014.2 hPa | - | - | - | - |
| 1777061377 | 24.44° C | 44% | 1014.4 hPa | - | - | - | - |
* Rain since midnight (hover to see other rain measurements)
** Current wind speed in m/s (hover to see current wind gust speed)